Location: Unspecified
(0.0000°N, 0.0000°E)
Time: 11:40:14
(UTC+00:00)

Explorer 11/Cluster Stage 4 - Pass Details

Date: 07 October 2020
Orbit: 467 x 1258 km, 28.8° (Epoch: 28 October)

Event Time Altitude Azimuth Distance (km) Brightness Sun altitude
Rises 06:40:53 0° 275° (W) 3,936 9.5 13.2°
Reaches altitude 10° 06:43:58 10° 264° (W) 3,070 9.1 14.0°
Maximum altitude 06:50:36 30° 207° (SSW) 2,065 8.7 15.6°
Drops below altitude 10° 06:57:35 10° 149° (SSE) 3,229 10.3 17.4°
Sets 07:00:56 0° 139° (SE) 4,168 11.0 18.2°
